This is the latest recevied weather packets stored in our database for station/object KY4EF. If no packets are shown the sender has not sent any weather packets the latest 10 day(s).
| Time | Temp. | Humidity | Pressure | Rain* | Wind** | Luminosity | Snow |
|---|---|---|---|---|---|---|---|
| 1778019008 | 22.78° C | 44% | 1011.7 hPa | 0 mm | - | 91 W/m² | - |
| 1778018704 | 23.33° C | 43% | 1011.8 hPa | 0 mm | - | 76 W/m² | - |
| 1778018402 | 23.33° C | 46% | 1011.7 hPa | 0 mm | - | 61 W/m² | - |
| 1778018100 | 23.33° C | 45% | 1011.8 hPa | 0 mm | - | 218 W/m² | - |
| 1778017798 | 23.89° C | 40% | 1011.7 hPa | 0 mm | - | 95 W/m² | - |
| 1778017496 | 23.89° C | 44% | 1011.7 hPa | 0 mm | - | 257 W/m² | - |
| 1778017192 | 23.33° C | 43% | 1011.8 hPa | 0 mm | - | 234 W/m² | - |
| 1778016890 | 22.78° C | 44% | 1011.7 hPa | 0 mm | - | 231 W/m² | - |
| 1778016586 | 23.33° C | 42% | 1012 hPa | 0 mm | - | 88 W/m² | - |
| 1778016283 | 23.89° C | 42% | 1011.7 hPa | 0 mm | - | 152 W/m² | - |
| 1778015979 | 25° C | 39% | 1011.6 hPa | 0 mm | - | 244 W/m² | - |
| 1778015677 | 24.44° C | 41% | 1011.7 hPa | 0 mm | - | 324 W/m² | - |
| 1778015373 | 23.89° C | 46% | 1011.6 hPa | 0 mm | - | 427 W/m² | - |
| 1778015071 | 25.56° C | 37% | 1011.8 hPa | 0 mm | - | 140 W/m² | - |
| 1778014767 | 26.67° C | 36% | 1011.7 hPa | 0 mm | - | 177 W/m² | - |
| 1778014466 | 25° C | 38% | 1011.8 hPa | 0 mm | - | 449 W/m² | - |
| 1778014162 | 25° C | 38% | 1011.5 hPa | 0 mm | - | 460 W/m² | - |
| 1778013860 | 25.56° C | 41% | 1011.4 hPa | 0 mm | - | 467 W/m² | - |
| 1778013557 | 25° C | 38% | 1011.6 hPa | 0 mm | - | 494 W/m² | - |
| 1778013254 | 26.67° C | 35% | 1011.8 hPa | 0 mm | - | 498 W/m² | - |
| 1778012950 | 26.11° C | 33% | 1011.8 hPa | 0 mm | - | 540 W/m² | - |
| 1778012646 | 26.11° C | 35% | 1012 hPa | 0 mm | - | 491 W/m² | - |
| 1778012343 | 25.56° C | 34% | 1011.7 hPa | 0 mm | - | 521 W/m² | - |
| 1778012040 | 25° C | 36% | 1011.8 hPa | 0 mm | - | 444 W/m² | - |
| 1778011738 | 25° C | 35% | 1012 hPa | 0 mm | - | 433 W/m² | - |
* Rain latest hour (hover to see other rain measurements)
** Current wind speed in m/s (hover to see current wind gust speed)